Flag for South Africa Weather past 2 weeks in Durban, South Africa

73 °F

Passing clouds.

Feels Like: 76 °F
Forecast: 63 / 85 °F
Wind: 15 mph from Northeast

Location: King Shaka International Airport

Current Time: Oct 6, 2015 at 4:57:34 PM

Latest Report: Oct 6, 2015 at 4:00 PM

Visibility: N/A

Pressure: 30.04 "Hg

Humidity: 65%

Dew point: 61 °F

Location of DurbanLocation

Historic Weather in Durban — Graph


Durban temperature yesterday

Maximum temperature yesterday: 79 °F (at 10:00 AM)
Minimum temperature yesterday: 66 °F (at 11:00 PM)
Average temperature yesterday: 72 °F

Past Weeks' High & Low Weather Summary

High82 °F (Oct 3, 1:00 PM)100% (Sep 25, 3:00 AM)30.24 "Hg (Sep 25, 3:00 AM)
Low55 °F (Oct 2, 4:00 AM)51% (Oct 5, 10:00 AM)29.65 "Hg (Sep 30, 2:00 PM)
Average70 °F79%29.98 "Hg
* Reported Sep 21 12:00 Noon — Oct 6 12:00 Noon, Durban, Weather by CustomWeather, © 2015

Note: Actual official high and low records may vary slightly from our data, if they occured in-between our weather recording intervals... More about our weather records


Durban weather history for previous 24 hours

Time TempWeatherWind HumidityBarometerVisibility
12:00 PM
Tue, Oct 6
75 °FPartly sunny.10 mph65%30.15 "HgN/A
11:00 AM72 °FBroken clouds.8 mph73%30.21 "HgN/A
10:00 AM72 °FBroken clouds.6 mph78%30.21 "HgN/A
9:00 AM68 °FOvercast.5 mph88%30.24 "HgN/A
8:00 AM66 °FPartly sunny.6 mph94%30.24 "HgN/A
7:00 AM66 °FCloudy.6 mph94%30.24 "Hg4 mi
6:00 AM64 °FLight rain. Mostly cloudy.5 mph94%30.24 "Hg1 mi
5:00 AM66 °FLight rain. More clouds than sun.5 mph94%30.21 "Hg5 mi
4:00 AM66 °FLight rain. Mostly cloudy.1 mph88%30.21 "Hg6 mi
3:00 AM66 °FMostly cloudy.3 mph94%30.21 "HgN/A
2:00 AM66 °FLight rain. Mostly cloudy.3 mph94%30.24 "Hg6 mi
1:00 AM66 °FOvercast.5 mph94%30.24 "HgN/A
11:00 PM
Mon, Oct 5
66 °FDrizzle. Mostly cloudy.6 mph94%30.24 "Hg4 mi
10:00 PM68 °FDrizzle. Mostly cloudy.8 mph88%30.24 "Hg2 mi
9:00 PM68 °FOvercast.6 mph94%30.24 "HgN/A
8:00 PM68 °FLight rain. Mostly cloudy.2 mph88%30.24 "HgN/A
7:00 PM68 °FThunderstorms. Passing clouds.2 mph88%30.21 "HgN/A
6:00 PM68 °FThunderstorms. Partly cloudy.5 mph88%30.18 "Hg5 mi
5:00 PM72 °FThunderstorms. Passing clouds.6 mph78%30.18 "HgN/A
4:00 PM72 °FSprinkles. Passing clouds.9 mph78%30.12 "HgN/A
Weather by CustomWeather, © 2015

See weather overviewHow to use our weather pages